Weather History for KABE - December, 2013

Change the Weather History Date:

Wednesday, December 25, 2013

  Actual Average Record
Temperature  
Mean Temperature 21 °F 30 °F  
Max Temperature 26 °F 38 °F 65 °F (1964)
Min Temperature 16 °F 22 °F -2 °F (1983)
Degree Days  
Heating Degree Days 44 35  
Month to date heating degree days 821 798  
Since 1 July heating degree days 1980 1978  
Cooling Degree Days 0 0  
Month to date cooling degree days 0 0  
Year to date cooling degree days 927 757  
Moisture  
Dew Point 8 °F    
Average Humidity 54    
Maximum Humidity 61    
Minimum Humidity 46    
Precipitation  
Precipitation 0.00 in 0.11 in 1.50 in (2002)
Month to date precipitation 3.16 3.00  
Year to date precipitation 45.07 44.77  
Snow  
Snow 0.00 in 0.20 in 6.60 in (2002)
Month to date snowfall 13.1 3.8  
Since 1 July snowfall 13.1 4.5  
Snow Depth T in    
Sea Level Pressure  
Sea Level Pressure 30.48 in    
Wind  
Wind Speed 4 mph (NNW)    
Max Wind Speed 16 mph    
Max Gust Speed 22 mph    
Visibility 10 miles    
Events      
T = Trace of Precipitation, MM = Missing Value Source: NWS Daily Summary

Daily Weather History Graph

Daily Weather History Graph

Search for Another Location

Airport or City:

Trip Planner

Search our weather history database for the weather conditions in past years. The results will help you decide how hot, cold, wet, or windy it might be!

Date:

Astronomy

Dec. 25, 2013 Rise Set
Actual Time 7:23 AM EST 4:40 PM EST
Civil Twilight 6:53 AM EST 5:11 PM EST
Nautical Twilight 6:18 AM EST 5:45 PM EST
Astronomical Twilight 5:45 AM EST 6:18 PM EST
Moon No Moon Rise 11:44 AM EST (12/25)
Length of Visible Light 10h 18m
Length of Day
9h 16m
Waning Gibbous, 49% of the Moon is Illuminated
Dec 25
Waning Gibbous
Jan 1
New
Jan 7
First Quarter
Jan 15
Full
Jan 24
Last Quarter

Hourly Weather History & Observations

Time (EST) Temp. Windchill Dew Point Humidity Pressure Visibility Wind Dir Wind Speed Gust Speed Precip Events Conditions
12:51 AM 21.9 °F 11.7 °F 9.0 °F 58% 30.41 in 10.0 mi NW 9.2 mph - N/A   Clear
1:51 AM 21.9 °F 10.4 °F 7.0 °F 53% 30.43 in 10.0 mi NNW 11.5 mph - N/A   Clear
2:51 AM 19.9 °F 9.3 °F 5.0 °F 52% 30.45 in 10.0 mi NW 9.2 mph - N/A   Clear
3:51 AM 19.0 °F 7.5 °F 6.1 °F 57% 30.46 in 10.0 mi NNW 10.4 mph - N/A   Clear
4:51 AM 17.1 °F 11.7 °F 6.1 °F 62% 30.49 in 10.0 mi NW 3.5 mph - N/A   Clear
5:51 AM 17.1 °F - 6.1 °F 62% 30.51 in 10.0 mi Calm Calm - N/A   Clear
6:51 AM 16.0 °F 6.3 °F 5.0 °F 62% 30.51 in 10.0 mi NNW 6.9 mph - 0.06 in   Clear
7:51 AM 16.0 °F 5.3 °F 5.0 °F 62% 30.54 in 10.0 mi NW 8.1 mph - 0.04 in   Clear
8:51 AM 18.0 °F 6.9 °F 6.1 °F 60% 30.54 in 10.0 mi NNW 9.2 mph - N/A   Clear
9:51 AM 19.9 °F 13.4 °F 7.0 °F 57% 30.56 in 10.0 mi NW 4.6 mph - N/A   Clear
10:51 AM 19.9 °F - 7.0 °F 57% 30.56 in 10.0 mi Calm Calm - N/A   Clear
11:51 AM 21.9 °F - 6.1 °F 51% 30.53 in 10.0 mi Calm Calm - N/A   Clear
12:51 PM 23.0 °F - 7.0 °F 50% 30.50 in 10.0 mi Calm Calm - N/A   Clear
1:51 PM 25.0 °F - 8.1 °F 49% 30.49 in 10.0 mi Calm Calm - N/A   Scattered Clouds
2:51 PM 25.0 °F - 7.0 °F 46% 30.49 in 10.0 mi Calm Calm - N/A   Mostly Cloudy
3:51 PM 25.0 °F - 7.0 °F 46% 30.49 in 10.0 mi Calm Calm - N/A   Mostly Cloudy
4:51 PM 25.0 °F - 7.0 °F 46% 30.50 in 10.0 mi Calm Calm - N/A   Clear
5:51 PM 24.1 °F 19.7 °F 9.0 °F 53% 30.48 in 10.0 mi East 3.5 mph - N/A   Clear
6:51 PM 26.1 °F 20.5 °F 10.0 °F 51% 30.48 in 10.0 mi ESE 4.6 mph - N/A   Clear
7:51 PM 25.0 °F 18.1 °F 10.9 °F 55% 30.47 in 10.0 mi East 5.8 mph - N/A   Clear
8:51 PM 26.1 °F 21.9 °F 10.9 °F 53% 30.46 in 10.0 mi ESE 3.5 mph - N/A   Clear
9:51 PM 26.1 °F - 10.9 °F 53% 30.45 in 10.0 mi Calm Calm - N/A   Clear
10:51 PM 26.1 °F - 10.9 °F 53% 30.44 in 10.0 mi Calm Calm - N/A   Clear
11:51 PM 26.1 °F 21.9 °F 12.0 °F 55% 30.42 in 10.0 mi Variable 3.5 mph - N/A   Clear